�������l�o���
Date,Time,MP-1(��Sv/h),MP-2(��Sv/h),MP-3(��Sv/h),MP-4(��Sv/h),MP-5(��Sv/h),MP-6(��Sv/h),MP-7(��Sv/h),MP-8(��Sv/h),����,����(m/s),���J
2017/10/18,00:00,0.899,1.422,0.926,1.712,1.172,0.496,0.907,0.843,��,8.8,��
2017/10/18,00:10,0.899,1.423,0.925,1.713,1.172,0.498,0.907,0.843,��,9.5,��
2017/10/18,00:20,0.899,1.425,0.928,1.713,1.173,0.497,0.905,0.844,��,8.2,��
2017/10/18,00:30,0.899,1.425,0.926,1.712,1.174,0.496,0.908,0.843,��,7.7,��
2017/10/18,00:40,0.900,1.424,0.925,1.713,1.172,0.497,0.909,0.843,���k��,7.5,��
2017/10/18,00:50,0.899,1.420,0.926,1.709,1.175,0.496,0.908,0.843,���k��,7.6,��
2017/10/18,01:00,0.901,1.422,0.925,1.712,1.173,0.498,0.909,0.844,���k��,7.1,��
2017/10/18,01:10,0.900,1.425,0.925,1.712,1.174,0.496,0.909,0.842,���k��,6.6,��
2017/10/18,01:20,0.900,1.425,0.926,1.713,1.172,0.496,0.908,0.843,���k��,7.2,��
2017/10/18,01:30,0.900,1.424,0.926,1.710,1.174,0.497,0.909,0.843,���k��,6.4,��
2017/10/18,01:40,0.898,1.421,0.924,1.708,1.172,0.497,0.908,0.843,���k��,7.6,��
2017/10/18,01:50,0.901,1.424,0.927,1.713,1.173,0.496,0.908,0.843,���k��,7.0,��
2017/10/18,02:00,0.902,1.423,0.926,1.712,1.172,0.497,0.907,0.843,���k��,7.4,��
2017/10/18,02:10,0.901,1.424,0.925,1.712,1.173,0.497,0.909,0.844,���k��,6.6,��
2017/10/18,02:20,0.900,1.427,0.926,1.708,1.173,0.496,0.909,0.843,���k��,7.4,��
2017/10/18,02:30,0.900,1.424,0.923,1.712,1.174,0.496,0.909,0.843,���k��,6.7,��
2017/10/18,02:40,0.899,1.424,0.925,1.713,1.173,0.496,0.909,0.842,���k��,6.3,��
2017/10/18,02:50,0.900,1.424,0.927,1.713,1.173,0.498,0.908,0.844,���k��,5.9,��
2017/10/18,03:00,0.897,1.424,0.925,1.712,1.173,0.497,0.909,0.844,���k��,6.1,��
2017/10/18,03:10,0.898,1.425,0.926,1.710,1.174,0.496,0.908,0.843,���k��,5.7,��
2017/10/18,03:20,0.899,1.424,0.924,1.711,1.173,0.497,0.908,0.844,���k��,5.5,��
2017/10/18,03:30,0.900,1.423,0.925,1.711,1.172,0.495,0.910,0.844,�k��,5.2,��
2017/10/18,03:40,0.900,1.423,0.925,1.715,1.174,0.497,0.908,0.843,�k��,5.7,��
2017/10/18,03:50,0.900,1.426,0.925,1.713,1.174,0.497,0.909,0.844,�k��,5.9,��
2017/10/18,04:00,0.900,1.424,0.926,1.715,1.172,0.498,0.910,0.843,�k��,5.8,��
2017/10/18,04:10,0.899,1.423,0.924,1.711,1.175,0.497,0.907,0.844,�k��,4.8,��
2017/10/18,04:20,0.902,1.423,0.926,1.711,1.172,0.496,0.909,0.844,�k��,4.5,��
2017/10/18,04:30,0.898,1.425,0.924,1.716,1.171,0.497,0.906,0.843,�k��,4.8,��
2017/10/18,04:40,0.899,1.424,0.925,1.712,1.174,0.495,0.909,0.845,�k��,4.1,��
2017/10/18,04:50,0.896,1.424,0.924,1.712,1.176,0.496,0.908,0.844,�k��,5.5,��
2017/10/18,05:00,0.898,1.423,0.929,1.712,1.175,0.495,0.908,0.844,�k��,5.8,��
2017/10/18,05:10,0.898,1.426,0.926,1.713,1.172,0.495,0.907,0.843,�k��,6.4,��
2017/10/18,05:20,0.897,1.425,0.925,1.712,1.175,0.496,0.908,0.844,�k��,7.8,��
2017/10/18,05:30,0.898,1.425,0.923,1.711,1.173,0.495,0.908,0.844,�k��,6.5,��
2017/10/18,05:40,0.899,1.423,0.926,1.715,1.172,0.496,0.908,0.843,�k��,5.4,��
2017/10/18,05:50,0.895,1.422,0.927,1.715,1.174,0.495,0.909,0.843,�k��,6.7,��
2017/10/18,06:00,0.898,1.425,0.926,1.715,1.174,0.496,0.909,0.843,�k��,6.5,��
2017/10/18,06:10,0.899,1.424,0.926,1.709,1.174,0.496,0.908,0.844,�k��,5.7,��
2017/10/18,06:20,0.898,1.424,0.926,1.714,1.173,0.496,0.908,0.844,�k��,5.5,��
2017/10/18,06:30,0.897,1.423,0.927,1.711,1.174,0.495,0.909,0.843,�k�k��,6.4,��
2017/10/18,06:40,0.896,1.422,0.927,1.711,1.175,0.496,0.909,0.842,�k�k��,5.6,��
2017/10/18,06:50,0.898,1.422,0.926,1.713,1.175,0.494,0.907,0.844,�k�k��,5.6,��
2017/10/18,07:00,0.898,1.424,0.924,1.713,1.174,0.497,0.906,0.844,�k�k��,5.8,��
2017/10/18,07:10,0.899,1.424,0.924,1.713,1.171,0.497,0.908,0.843,�k�k��,6.5,��
2017/10/18,07:20,0.897,1.425,0.926,1.713,1.174,0.494,0.908,0.844,�k,7.4,��
2017/10/18,07:30,0.898,1.425,0.927,1.716,1.174,0.496,0.909,0.842,�k�k��,8.6,��
2017/10/18,07:40,0.898,1.426,0.926,1.715,1.175,0.496,0.907,0.843,�k�k��,7.7,��
2017/10/18,07:50,0.899,1.426,0.927,1.716,1.173,0.495,0.909,0.844,�k�k��,7.4,��
2017/10/18,08:00,0.898,1.427,0.926,1.716,1.175,0.496,0.908,0.844,�k�k��,6.4,��
2017/10/18,08:10,0.899,1.429,0.927,1.714,1.175,0.495,0.909,0.845,�k�k��,6.6,��
2017/10/18,08:20,0.899,1.428,0.926,1.717,1.174,0.494,0.910,0.844,�k�k��,6.5,��
2017/10/18,08:30,0.899,1.425,0.925,1.716,1.176,0.495,0.907,0.844,�k�k��,6.1,��
2017/10/18,08:40,0.900,1.432,0.928,1.717,1.178,0.495,0.907,0.845,�k�k��,6.5,��
2017/10/18,08:50,0.899,1.429,0.929,1.718,1.177,0.496,0.907,0.845,�k�k��,6.3,��
2017/10/18,09:00,0.901,1.428,0.927,1.719,1.178,0.496,0.908,0.845,�k,6.1,��
2017/10/18,09:10,0.899,1.429,0.929,1.718,1.179,0.495,0.907,0.847,�k,6.8,��
2017/10/18,09:20,0.900,1.429,0.930,1.716,1.178,0.498,0.908,0.848,�k,8.3,��
2017/10/18,09:30,0.902,1.430,0.931,1.719,1.177,0.497,0.906,0.846,�k,8.2,��
2017/10/18,09:40,0.900,1.427,0.928,1.720,1.177,0.496,0.909,0.844,�k,7.9,��
2017/10/18,09:50,0.900,1.425,0.928,1.718,1.178,0.496,0.908,0.844,�k�k��,8.0,��
2017/10/18,10:00,0.902,1.428,0.929,1.720,1.177,0.494,0.908,0.846,�k�k��,9.0,��
2017/10/18,10:10,0.900,1.423,0.929,1.717,1.177,0.494,0.907,0.843,�k,9.1,��
2017/10/18,10:20,0.903,1.425,0.929,1.720,1.177,0.493,0.907,0.843,�k,8.6,��
2017/10/18,10:30,0.901,1.424,0.929,1.721,1.179,0.495,0.908,0.843,�k,8.1,��
2017/10/18,10:40,0.901,1.428,0.932,1.720,1.179,0.495,0.907,0.841,�k�k��,7.3,��
2017/10/18,10:50,0.904,1.429,0.929,1.723,1.179,0.495,0.910,0.842,�k�k��,7.0,��
2017/10/18,11:00,0.902,1.429,0.930,1.722,1.182,0.492,0.908,0.842,�k,6.7,��
2017/10/18,11:10,0.902,1.427,0.927,1.721,1.181,0.496,0.909,0.841,�k�k��,7.7,��
2017/10/18,11:20,0.902,1.428,0.929,1.720,1.179,0.497,0.908,0.844,�k�k��,7.7,��
2017/10/18,11:30,0.904,1.429,0.928,1.723,1.179,0.495,0.911,0.843,�k�k��,6.7,��
2017/10/18,11:40,0.903,1.432,0.926,1.724,1.181,0.494,0.909,0.842,�k�k��,7.0,��
2017/10/18,11:50,0.904,1.433,0.931,1.722,1.181,0.496,0.910,0.844,�k�k��,7.8,��
2017/10/18,12:00,0.904,1.431,0.928,1.723,1.181,0.496,0.909,0.845,�k�k��,7.4,��
2017/10/18,12:10,0.902,1.437,0.931,1.726,1.183,0.497,0.910,0.844,�k,6.9,��
2017/10/18,12:20,0.905,1.437,0.928,1.724,1.186,0.497,0.910,0.843,�k�k��,5.6,��
2017/10/18,12:30,0.907,1.435,0.930,1.726,1.185,0.498,0.909,0.840,�k,5.9,��
2017/10/18,12:40,0.904,1.437,0.929,1.725,1.184,0.497,0.912,0.845,�k,6.5,��
2017/10/18,12:50,0.904,1.432,0.931,1.726,1.188,0.497,0.910,0.843,�k,5.5,��
2017/10/18,13:00,0.905,1.435,0.929,1.726,1.184,0.497,0.910,0.843,�k�k��,5.5,��
2017/10/18,13:10,0.906,1.434,0.929,1.727,1.183,0.497,0.911,0.844,�k,4.9,��
2017/10/18,13:20,0.905,1.433,0.931,1.725,1.185,0.498,0.911,0.843,�k�k��,5.7,��
2017/10/18,13:30,0.904,1.432,0.930,1.729,1.185,0.498,0.910,0.843,�k�k��,5.4,��
2017/10/18,13:40,0.906,1.434,0.929,1.725,1.185,0.497,0.910,0.843,�k,4.7,��
2017/10/18,13:50,0.906,1.434,0.930,1.727,1.185,0.498,0.909,0.844,�k�k��,7.1,��
2017/10/18,14:00,0.906,1.436,0.930,1.725,1.187,0.497,0.911,0.845,�k�k��,6.5,��
2017/10/18,14:10,0.906,1.438,0.932,1.727,1.185,0.496,0.909,0.843,�k,6.2,��
2017/10/18,14:20,0.907,1.438,0.931,1.725,1.185,0.498,0.909,0.842,�k�k��,5.1,��
2017/10/18,14:30,0.908,1.437,0.936,1.726,1.186,0.498,0.911,0.845,�k�k��,4.7,��
2017/10/18,14:40,0.909,1.438,0.935,1.724,1.188,0.498,0.910,0.846,�k,4.8,��
2017/10/18,14:50,0.909,1.442,0.933,1.727,1.189,0.498,0.909,0.845,�k,5.2,��
2017/10/18,15:00,0.912,1.442,0.931,1.729,1.189,0.498,0.911,0.848,�k,5.1,��
2017/10/18,15:10,0.909,1.440,0.933,1.727,1.188,0.499,0.910,0.844,�k,5.1,��
2017/10/18,15:20,0.908,1.439,0.933,1.726,1.189,0.498,0.910,0.847,�k,3.7,��
2017/10/18,15:30,0.907,1.439,0.934,1.729,1.189,0.498,0.910,0.848,�k�k��,4.1,��
2017/10/18,15:40,0.907,1.440,0.934,1.727,1.187,0.497,0.910,0.847,�k�k��,5.2,��
2017/10/18,15:50,0.907,1.439,0.932,1.728,1.185,0.499,0.910,0.848,�k�k��,3.6,��
2017/10/18,16:00,0.908,1.442,0.932,1.727,1.189,0.498,0.913,0.849,�k�k��,2.6,��
2017/10/18,16:10,0.906,1.444,0.934,1.725,1.188,0.498,0.910,0.846,�k�k��,1.4,��
2017/10/18,16:20,0.906,1.444,0.932,1.727,1.191,0.497,0.913,0.848,-,CALM,��
2017/10/18,16:30,0.908,1.442,0.934,1.728,1.191,0.497,0.911,0.847,�k��,1.7,��
2017/10/18,16:40,0.906,1.444,0.933,1.727,1.192,0.497,0.912,0.847,�k,2.8,��
2017/10/18,16:50,0.906,1.445,0.935,1.727,1.190,0.497,0.912,0.847,�k��,2.3,��
2017/10/18,17:00,0.904,1.441,0.931,1.726,1.192,0.498,0.911,0.847,�k�k��,0.9,��
2017/10/18,17:10,0.907,1.443,0.933,1.724,1.189,0.498,0.913,0.847,�k�k��,2.2,��
2017/10/18,17:20,0.907,1.442,0.932,1.727,1.192,0.497,0.910,0.847,�k��,2.0,��
2017/10/18,17:30,0.904,1.441,0.933,1.728,1.189,0.497,0.913,0.847,�k,1.5,��
2017/10/18,17:40,0.906,1.443,0.932,1.728,1.190,0.497,0.912,0.846,�k��,0.9,��
2017/10/18,17:50,0.906,1.441,0.933,1.727,1.191,0.497,0.913,0.845,�k,2.0,��
2017/10/18,18:00,0.907,1.443,0.935,1.726,1.190,0.498,0.912,0.848,�k�k��,2.3,��
2017/10/18,18:10,0.910,1.444,0.932,1.725,1.191,0.498,0.913,0.847,�k,3.0,��
2017/10/18,18:20,0.908,1.443,0.933,1.727,1.189,0.499,0.912,0.848,�k,2.6,��
2017/10/18,18:30,0.907,1.442,0.931,1.728,1.190,0.498,0.913,0.845,�k�k��,1.5,��
2017/10/18,18:40,0.906,1.441,0.932,1.725,1.188,0.496,0.912,0.847,�k,2.2,��
2017/10/18,18:50,0.906,1.442,0.934,1.725,1.188,0.499,0.911,0.847,�k,2.6,��
2017/10/18,19:00,0.907,1.444,0.934,1.728,1.191,0.497,0.912,0.846,�k�k��,2.3,��
2017/10/18,19:10,0.907,1.443,0.933,1.727,1.191,0.498,0.912,0.847,�k�k��,0.6,��
2017/10/18,19:20,0.908,1.443,0.934,1.729,1.189,0.498,0.911,0.845,�k��,0.8,��
2017/10/18,19:30,0.907,1.445,0.933,1.726,1.190,0.497,0.911,0.846,��,1.2,��
2017/10/18,19:40,0.907,1.442,0.933,1.729,1.190,0.497,0.912,0.845,�k,0.9,��
2017/10/18,19:50,0.908,1.441,0.935,1.727,1.187,0.497,0.914,0.846,-,CALM,��
2017/10/18,20:00,0.906,1.444,0.933,1.727,1.189,0.499,0.914,0.846,�k�k��,1.1,��
2017/10/18,20:10,0.906,1.443,0.935,1.728,1.190,0.499,0.911,0.847,�k��,1.5,��
2017/10/18,20:20,0.907,1.444,0.934,1.727,1.190,0.498,0.912,0.846,�k�k��,1.2,��
2017/10/18,20:30,0.908,1.444,0.933,1.729,1.189,0.499,0.913,0.846,�k,0.9,��
2017/10/18,20:40,0.906,1.445,0.933,1.727,1.189,0.499,0.913,0.847,�k�k��,1.5,��
2017/10/18,20:50,0.906,1.443,0.935,1.728,1.190,0.499,0.913,0.848,�k��,1.5,��
2017/10/18,21:00,0.906,1.442,0.932,1.727,1.191,0.498,0.912,0.846,�k��,1.9,��
2017/10/18,21:10,0.906,1.441,0.936,1.727,1.192,0.499,0.913,0.847,�k�k��,3.0,��
2017/10/18,21:20,0.906,1.442,0.936,1.729,1.189,0.498,0.912,0.848,�k��,2.3,��
2017/10/18,21:30,0.907,1.441,0.935,1.729,1.188,0.498,0.914,0.847,�k�k��,3.6,��
2017/10/18,21:40,0.906,1.444,0.934,1.726,1.190,0.499,0.911,0.848,�k�k��,3.2,��
2017/10/18,21:50,0.908,1.445,0.934,1.727,1.191,0.498,0.913,0.847,�k��,2.6,��
2017/10/18,22:00,0.909,1.444,0.936,1.730,1.190,0.498,0.911,0.848,���k��,0.9,��
2017/10/18,22:10,0.908,1.443,0.931,1.730,1.191,0.499,0.909,0.845,���쐼,1.1,��
2017/10/18,22:20,0.909,1.444,0.934,1.727,1.191,0.497,0.912,0.846,���k��,1.1,��
2017/10/18,22:30,0.908,1.440,0.934,1.727,1.190,0.501,0.911,0.845,�k��,1.5,��
2017/10/18,22:40,0.908,1.445,0.933,1.729,1.191,0.499,0.913,0.845,���k��,0.9,��
2017/10/18,22:50,0.907,1.443,0.932,1.727,1.189,0.499,0.914,0.848,��쐼,0.9,��
2017/10/18,23:00,0.909,1.446,0.934,1.730,1.191,0.499,0.914,0.847,�쐼,1.2,��
2017/10/18,23:10,0.906,1.444,0.933,1.731,1.189,0.498,0.914,0.847,�쓌,0.9,��
2017/10/18,23:20,0.908,1.443,0.933,1.729,1.191,0.498,0.914,0.848,��쐼,0.8,��
2017/10/18,23:30,0.905,1.442,0.934,1.730,1.193,0.498,0.912,0.848,���쐼,1.5,��
2017/10/18,23:40,0.906,1.443,0.933,1.727,1.192,0.498,0.911,0.848,�쐼,1.2,��
2017/10/18,23:50,0.907,1.443,0.933,1.729,1.191,0.498,0.913,0.847,���쐼,1.1,��
